Glasgow, United Kingdom

11:17 AM BST on May 21, 2018 (GMT +0100)
Glasgow

Weather History for EGPF - March, 2014

Change the Weather History Date:

Wednesday, March 5, 2014

  Actual Average Record
Temperature  
Mean Temperature 42 °F -  
Max Temperature 46 °F 48 °F 51 °F (2003)
Min Temperature 39 °F 35 °F 24 °F (2009)
Degree Days  
Heating Degree Days 22    
Moisture  
Dew Point 41 °F    
Average Humidity 88    
Maximum Humidity 93    
Minimum Humidity 81    
Precipitation  
Precipitation 0.00 in - - ()
Sea Level Pressure  
Sea Level Pressure 29.89 in    
Wind  
Wind Speed 11 mph ()    
Max Wind Speed 22 mph    
Max Gust Speed -    
Visibility 6.1 miles    
Events Rain    
Averages and records for this station are not official NWS values.
T = Trace of Precipitation, MM = Missing Value Source: Averaged Metar Reports

Daily Weather History Graph

Daily Weather History Graph

Search for Another Location

Airport or City:

Astronomy

Mar. 05, 2014 Rise Set
Actual Time 6:59 AM GMT 6:00 PM GMT
Civil Twilight 6:22 AM GMT 6:37 PM GMT
Nautical Twilight 5:39 AM GMT 7:20 PM GMT
Astronomical Twilight 4:55 AM GMT 8:04 PM GMT
Moon 8:24 AM GMT (3/5) 11:51 PM GMT (3/5)
Length of Visible Light 12h 15m
Length of Day
11h 01m
Waxing Crescent, 21% of the Moon is Illuminated
Mar 5
Waxing Crescent
Mar 8
First Quarter
Mar 16
Full
Mar 24
Last Quarter
Mar 30
New

Hourly Weather History & Observations

Time (GMT) Temp. Windchill Dew Point Humidity Pressure Visibility Wind Dir Wind Speed Gust Speed Precip Events Conditions
12:20 AM 39.2 °F 35.0 °F 37.4 °F 93% 29.77 in - South 5.8 mph - N/A   Clear
12:50 AM 41.0 °F 38.0 °F 39.2 °F 93% 29.77 in 6.2 mi SW 4.6 mph - N/A Rain Light Rain
1:20 AM 39.2 °F 35.9 °F 37.4 °F 93% 29.80 in 6.2 mi SW 4.6 mph - N/A   Scattered Clouds
1:50 AM 39.2 °F 33.0 °F 37.4 °F 93% 29.80 in - WSW 9.2 mph - N/A   Clear
2:20 AM 39.2 °F - 37.4 °F 93% 29.83 in - Variable 2.3 mph - N/A   Clear
2:50 AM 41.0 °F 34.7 °F 39.2 °F 93% 29.83 in - SW 10.4 mph - N/A   Clear
3:20 AM 42.8 °F 35.8 °F 39.2 °F 87% 29.83 in - SSW 13.8 mph - N/A   Clear
3:50 AM 42.8 °F 36.2 °F 39.2 °F 87% 29.83 in - SW 12.7 mph - N/A   Clear
4:20 AM 42.8 °F 36.2 °F 41.0 °F 93% 29.86 in 6.2 mi SW 12.7 mph - N/A Rain Light Rain
4:50 AM 42.8 °F 35.8 °F 41.0 °F 93% 29.86 in 6.2 mi SSW 13.8 mph - N/A   Mostly Cloudy
5:20 AM 42.8 °F 35.8 °F 39.2 °F 87% 29.86 in 6.2 mi SSW 13.8 mph - N/A   Partly Cloudy
5:50 AM 42.8 °F 36.6 °F 39.2 °F 87% 29.86 in 6.2 mi SW 11.5 mph - N/A   Partly Cloudy
6:20 AM 42.8 °F 37.0 °F 39.2 °F 87% 29.89 in 6.2 mi SSW 10.4 mph - N/A   Partly Cloudy
6:50 AM 42.8 °F 37.5 °F 39.2 °F 87% 29.89 in 6.2 mi SSW 9.2 mph - N/A   Mostly Cloudy
7:20 AM 42.8 °F 36.6 °F 39.2 °F 87% 29.89 in 6.2 mi SSW 11.5 mph - N/A   Mostly Cloudy
7:50 AM 42.8 °F 36.2 °F 39.2 °F 87% 29.89 in 6.2 mi SSW 12.7 mph - N/A   Mostly Cloudy
8:20 AM 42.8 °F 37.0 °F 39.2 °F 87% 29.89 in 6.2 mi SSW 10.4 mph - N/A   Mostly Cloudy
8:50 AM 44.6 °F 39.2 °F 39.2 °F 81% 29.89 in 6.2 mi SSW 10.4 mph - N/A   Mostly Cloudy
9:20 AM 44.6 °F 39.2 °F 39.2 °F 81% 29.92 in 6.2 mi SSW 10.4 mph - N/A Rain Light Rain
9:50 AM 44.6 °F 37.4 °F 39.2 °F 81% 29.92 in 6.2 mi SW 16.1 mph - N/A   Overcast
10:20 AM 44.6 °F 38.1 °F 41.0 °F 87% 29.92 in 6.2 mi SSW 13.8 mph - N/A   Overcast
10:50 AM 46.4 °F 39.8 °F 41.0 °F 81% 29.92 in 6.2 mi SSW 16.1 mph - N/A   Mostly Cloudy
11:20 AM 46.4 °F 39.5 °F 41.0 °F 81% 29.92 in 6.2 mi SSW 17.3 mph - N/A Rain Light Rain
11:50 AM 46.4 °F 39.2 °F 42.8 °F 87% 29.92 in 6.2 mi SW 18.4 mph - N/A Rain Light Rain
12:20 PM 46.4 °F 39.2 °F 42.8 °F 87% 29.92 in 6.2 mi SW 18.4 mph - N/A Rain Light Rain
12:50 PM 46.4 °F 39.2 °F 42.8 °F 87% 29.92 in 6.2 mi SW 18.4 mph - N/A Rain Light Rain
1:20 PM 46.4 °F 39.5 °F 42.8 °F 87% 29.92 in 6.2 mi SW 17.3 mph - N/A Rain Light Rain
1:50 PM 46.4 °F 38.5 °F 42.8 °F 87% 29.92 in 6.2 mi SW 21.9 mph - N/A   Overcast
2:20 PM 46.4 °F 38.7 °F 42.8 °F 87% 29.92 in 6.2 mi SW 20.7 mph - N/A Rain Light Rain
2:50 PM 46.4 °F 39.0 °F 42.8 °F 87% 29.92 in 6.2 mi SW 19.6 mph - N/A Rain Light Rain
3:20 PM 46.4 °F 39.2 °F 42.8 °F 87% 29.92 in 6.2 mi SSW 18.4 mph - N/A Rain Light Rain
3:50 PM 46.4 °F 39.5 °F 42.8 °F 87% 29.92 in 6.2 mi SSW 17.3 mph - N/A Rain Light Rain
4:20 PM 46.4 °F 39.8 °F 42.8 °F 87% 29.92 in 6.2 mi SSW 16.1 mph - N/A Rain Light Rain
4:50 PM 46.4 °F 39.5 °F 42.8 °F 87% 29.92 in 6.2 mi SSW 17.3 mph - N/A Rain Light Rain
5:20 PM 46.4 °F 39.8 °F 42.8 °F 87% 29.92 in 6.2 mi SSW 16.1 mph - N/A Rain Light Rain
5:50 PM 46.4 °F 39.8 °F 42.8 °F 87% 29.92 in 6.2 mi SSW 16.1 mph - N/A Rain Light Rain
6:20 PM 46.4 °F 40.1 °F 42.8 °F 87% 29.92 in 6.2 mi SSW 15.0 mph - N/A Rain Light Rain
6:50 PM 46.4 °F 40.1 °F 42.8 °F 87% 29.92 in 6.2 mi SSW 15.0 mph - N/A Rain Light Rain
7:20 PM 46.4 °F 40.1 °F 42.8 °F 87% 29.92 in 6.2 mi SSW 15.0 mph - N/A Rain Light Rain
7:50 PM 46.4 °F 39.5 °F 42.8 °F 87% 29.92 in 6.2 mi SSW 17.3 mph - N/A Rain Light Rain
8:20 PM 46.4 °F 39.8 °F 44.6 °F 93% 29.92 in 5.6 mi SSW 16.1 mph - N/A Rain Light Rain
8:50 PM 46.4 °F 39.5 °F 44.6 °F 93% 29.92 in 5.0 mi SSW 17.3 mph - N/A Rain Light Rain
9:20 PM 46.4 °F 39.5 °F 44.6 °F 93% 29.92 in 6.2 mi SSW 17.3 mph - N/A Rain Light Rain
9:50 PM 46.4 °F 39.2 °F 44.6 °F 93% 29.92 in 6.2 mi SSW 18.4 mph - N/A Rain Light Rain
10:20 PM 46.4 °F 39.5 °F 44.6 °F 93% 29.92 in 5.0 mi SSW 17.3 mph - N/A Rain Light Rain
10:50 PM 46.4 °F 40.1 °F 44.6 °F 93% 29.89 in 5.0 mi South 15.0 mph - N/A Rain Rain
11:20 PM 46.4 °F 39.5 °F 44.6 °F 93% 29.92 in 6.2 mi SSW 17.3 mph - N/A Rain Light Rain
11:50 PM 46.4 °F 39.8 °F 44.6 °F 93% 29.92 in 6.2 mi SSW 16.1 mph - N/A Rain Light Rain